Friday Harbor, WA

4:12 AM PDT on September 21, 2017 (GMT -0700)
Friday Harbor

Weather History for KFHR - April, 2013

Change the Weather History Date:

Friday, April 19, 2013

  Actual Average Record
Temperature  
Mean Temperature 50 °F -  
Max Temperature 54 °F 55 °F 75 °F (2016)
Min Temperature 48 °F 37 °F 33 °F (2007)
Degree Days  
Heating Degree Days 14    
Moisture  
Dew Point 47 °F    
Average Humidity 93    
Maximum Humidity 100    
Minimum Humidity 83    
Precipitation  
Precipitation 0.15 in - - ()
Sea Level Pressure  
Sea Level Pressure 30.11 in    
Wind  
Wind Speed 4 mph (South)    
Max Wind Speed 12 mph    
Max Gust Speed 21 mph    
Visibility 7 miles    
Events Rain    
Averages and records for this station are not official NWS values.
T = Trace of Precipitation, MM = Missing Value Source: NWS Daily Summary

Daily Weather History Graph

Daily Weather History Graph

Search for Another Location

Airport or City:

Trip Planner

Search our weather history database for the weather conditions in past years. The results will help you decide how hot, cold, wet, or windy it might be!

Date:

Astronomy

Apr. 19, 2013 Rise Set
Actual Time 6:13 AM PDT 8:09 PM PDT
Civil Twilight 5:39 AM PDT 8:43 PM PDT
Nautical Twilight 4:58 AM PDT 9:24 PM PDT
Astronomical Twilight 4:12 AM PDT 10:11 PM PDT
Moon 1:30 PM PDT (4/19) 3:02 AM PDT (4/19)
Length of Visible Light 15h 03m
Length of Day
13h 56m
Waxing Gibbous, 62% of the Moon is Illuminated
Apr 19
Waxing Gibbous
Apr 25
Full
May 2
Last Quarter
May 9
New
May 17
First Quarter

Hourly Weather History & Observations

Time (PDT) Temp. Dew Point Humidity Pressure Visibility Wind Dir Wind Speed Gust Speed Precip Events Conditions
12:01 AM 48.2 °F 46.4 °F 93% 30.18 in 10.0 mi SE 8.1 mph - 0.00 in Rain Light Rain
12:53 AM 48.0 °F 46.9 °F 96% 30.17 in 10.0 mi Calm Calm - 0.00 in Rain Light Rain
1:53 AM 48.0 °F 46.0 °F 93% 30.16 in 7.0 mi Calm Calm - 0.02 in Rain Light Rain
2:27 AM 48.2 °F 46.4 °F 93% 30.15 in 6.0 mi East 4.6 mph - 0.03 in Rain Light Rain
2:44 AM 48.2 °F 46.4 °F 93% 30.14 in 6.0 mi East 4.6 mph - 0.06 in Rain Light Rain
2:53 AM 48.0 °F 46.9 °F 96% 30.14 in 6.0 mi East 4.6 mph - 0.07 in Rain Light Rain
3:02 AM 48.2 °F 48.2 °F 100% 30.13 in 7.0 mi Variable 3.5 mph - 0.00 in Rain Light Rain
3:07 AM 48.2 °F 46.4 °F 93% 30.13 in 7.0 mi ENE 4.6 mph - 0.00 in Rain Light Rain
3:53 AM 48.0 °F 46.9 °F 96% 30.11 in 9.0 mi East 6.9 mph - 0.01 in Rain Light Rain
4:53 AM 48.0 °F 46.9 °F 96% 30.09 in 10.0 mi ESE 5.8 mph - 0.00 in   Overcast
5:53 AM 48.0 °F 46.9 °F 96% 30.08 in 10.0 mi Calm Calm - 0.00 in Rain Light Rain
6:34 AM 48.2 °F 46.4 °F 93% 30.07 in 9.0 mi Calm Calm - 0.00 in Rain Light Rain
6:53 AM 48.0 °F 46.9 °F 96% 30.08 in 4.0 mi Calm Calm - 0.01 in Rain Light Rain
7:16 AM 48.2 °F 46.4 °F 93% 30.07 in 2.0 mi Calm Calm - 0.00 in Rain Light Rain
7:39 AM 48.2 °F 46.4 °F 93% 30.07 in 4.0 mi Calm Calm - 0.00 in Rain Light Rain
7:53 AM 48.0 °F 46.9 °F 96% 30.07 in 5.0 mi Calm Calm - 0.00 in Rain Light Rain
8:53 AM 48.9 °F 46.9 °F 93% 30.07 in 5.0 mi Calm Calm - 0.00 in Rain Light Rain
9:53 AM 48.9 °F 48.0 °F 97% 30.08 in 3.0 mi Calm Calm - 0.01 in Rain Light Rain
9:57 AM 48.2 °F 48.2 °F 100% 30.08 in 2.0 mi Calm Calm - 0.00 in Rain Light Rain
10:06 AM 48.2 °F 48.2 °F 100% 30.08 in 1.8 mi Calm Calm - 0.00 in Rain Light Rain
10:22 AM 50.0 °F 48.2 °F 94% 30.08 in 2.5 mi Calm Calm - 0.00 in Rain Light Rain
10:29 AM 50.0 °F 48.2 °F 94% 30.08 in 3.0 mi Calm Calm - 0.00 in Rain Light Rain
10:51 AM 50.0 °F 48.2 °F 94% 30.09 in 4.0 mi ESE 3.5 mph - 0.00 in   Overcast
10:53 AM 50.0 °F 48.0 °F 93% 30.09 in 4.0 mi ESE 3.5 mph - 0.00 in   Overcast
11:01 AM 50.0 °F 48.2 °F 94% 30.09 in 1.8 mi Calm Calm - 0.00 in Rain Light Rain
11:08 AM 50.0 °F 48.2 °F 94% 30.09 in 2.0 mi ESE 4.6 mph - 0.00 in Rain Light Rain
11:21 AM 48.2 °F 48.2 °F 100% 30.10 in 1.8 mi East 3.5 mph - 0.00 in Rain Light Rain
11:53 AM 50.0 °F 48.9 °F 96% 30.10 in 2.0 mi SE 3.5 mph - 0.00 in Rain Light Rain
12:08 PM 50.0 °F 48.2 °F 94% 30.10 in 5.0 mi SE 3.5 mph - 0.00 in Rain Light Rain
12:35 PM 50.0 °F 48.2 °F 94% 30.11 in 10.0 mi SW 5.8 mph - 0.00 in   Overcast
12:53 PM 50.0 °F 48.9 °F 96% 30.11 in 10.0 mi SW 5.8 mph - 0.00 in   Overcast
1:07 PM 50.0 °F 48.2 °F 94% 30.11 in 10.0 mi SSW 5.8 mph - N/A   Overcast
1:45 PM 51.8 °F 48.2 °F 88% 30.11 in 10.0 mi South 6.9 mph - 0.00 in Rain Light Rain
1:53 PM 52.0 °F 50.0 °F 93% 30.12 in 10.0 mi SW 6.9 mph - 0.00 in   Overcast
2:04 PM 51.8 °F 50.0 °F 94% 30.11 in 10.0 mi SSW 4.6 mph - N/A   Overcast
2:53 PM 52.0 °F 48.9 °F 89% 30.12 in 10.0 mi SSW 4.6 mph - N/A   Overcast
3:07 PM 53.6 °F 50.0 °F 88% 30.11 in 10.0 mi SSW 4.6 mph - N/A   Overcast
3:53 PM 53.1 °F 48.9 °F 86% 30.12 in 10.0 mi ESE 5.8 mph - N/A   Mostly Cloudy
4:53 PM 51.1 °F 48.0 °F 89% 30.12 in 10.0 mi Calm Calm - 0.00 in Rain Light Rain
5:53 PM 51.1 °F 48.9 °F 92% 30.12 in 4.0 mi SW 5.8 mph - 0.01 in Rain Light Rain
6:53 PM 48.9 °F 46.0 °F 90% 30.13 in 4.0 mi WSW 8.1 mph - 0.01 in Rain Rain
7:53 PM 48.0 °F 45.0 °F 89% 30.13 in 10.0 mi WSW 8.1 mph 16.1 mph 0.01 in   Clear
8:53 PM 48.0 °F 44.1 °F 86% 30.14 in 10.0 mi SW 9.2 mph 19.6 mph N/A   Overcast
9:53 PM 48.0 °F 44.1 °F 86% 30.14 in 10.0 mi SW 11.5 mph 20.7 mph N/A   Overcast
10:53 PM 48.0 °F 44.1 °F 86% 30.15 in 10.0 mi WSW 8.1 mph - N/A   Scattered Clouds
11:53 PM 48.0 °F 43.0 °F 83% 30.16 in 10.0 mi WSW 9.2 mph 17.3 mph N/A   Overcast